Location: Unspecified
(0.0000°N, 0.0000°E)
Time: 21:35:04
(UTC+01:00)

Amateur Radio Satellites - All Passes

Search period start: 27 February 2017 21:05
Search period end: 28 February 2017 21:05
Location: Unspecified, 0.0000°N, 0.0000°E

Satellite Date Start Highest point End Downlink Frequencies (MHz)
Time Altitude Azimuth
AAUSAT CUBESAT 2 27 Feb 21:15:01 21:19:06 52° 259° (WSW) 21:23:08 437.432
AO-73 27 Feb 21:21:44 21:26:00 61° 79° (ENE) 21:30:21 145.935
CUBEBUG 2 27 Feb 21:23:38 21:27:19 29° 259° (W) 21:31:04 437.445
Oscar 11 27 Feb 21:25:30 21:29:47 58° 79° (ENE) 21:34:03 .
SEEDS 27 Feb 21:35:21 21:36:55 12° 258° (WSW) 21:38:28 437.485
YUBILEINY 27 Feb 21:37:36 21:44:00 23° 87° (E) 21:50:23 435.215
SO-50 27 Feb 21:46:53 21:50:47 25° 292° (WNW) 21:54:38 436.795
JUGNU 27 Feb 21:48:50 21:48:59 10° 355° (N) 21:49:09 437.505
PRISM 27 Feb 21:55:54 21:59:53 52° 102° (ESE) 22:03:55 437.425
UWE-3 27 Feb 21:56:31 21:59:34 19° 259° (W) 22:02:40 435.000/436.395/437.385
ZACube-1 27 Feb 22:11:39 22:15:02 23° 259° (W) 22:18:29 437.345
O/OREOS (USA 219) 27 Feb 22:24:32 22:28:52 51° 284° (WNW) 22:33:11 437.305
DELFI C3 27 Feb 22:26:05 22:30:05 77° 259° (W) 22:34:02 145.870
FO-29 27 Feb 22:46:46 22:52:33 33° 101° (E) 22:57:47 435.910
SRMSAT 27 Feb 22:47:52 22:51:27 16° 347° (NNW) 22:55:04 437.500
TIGRISAT 27 Feb 22:50:15 22:54:50 89° 103° (ESE) 22:59:20 435.000
UNISAT 6 27 Feb 22:50:44 22:55:18 82° 284° (WNW) 22:59:48 437.425
YUBILEINY 27 Feb 23:32:20 23:40:23 44° 267° (W) 23:48:30 435.215
NANOSAT C BR1 27 Feb 23:36:36 23:39:00 15° 102° (ESE) 23:41:26 145.865
JUGNU 27 Feb 23:38:19 23:39:11 10° 6° (N) 23:40:04 437.505
AIST 2D 27 Feb 23:38:31 23:41:41 32° 101° (E) 23:44:50 435.315
POLYITAN 1 27 Feb 23:39:00 23:41:57 18° 102° (ESE) 23:44:55 437.675
QB50P2 27 Feb 23:41:42 23:45:01 22° 102° (ESE) 23:48:21 145.880/145.840
ESTCUBE 1 27 Feb 23:46:59 23:51:17 43° 78° (ENE) 23:55:34 437.505/2401.250
LO-87 27 Feb 23:58:24 00:01:44 38° 259° (W) 00:05:01 145.935 - 145.965
VELOX 1 28 Feb 00:02:58 00:05:39 16° 78° (ENE) 00:08:19 145.980
50 SAT 28 Feb 00:17:55 00:19:31 13° 79° (ENE) 00:21:05 437.505
FO-29 28 Feb 00:32:29 00:37:13 21° 286° (WNW) 00:41:38 435.910
DUCHIFAT 1 28 Feb 00:41:07 00:45:19 65° 281° (WNW) 00:49:30 145.980
SRMSAT 28 Feb 00:41:23 00:41:39 10° 357° (N) 00:41:55 437.500
EO-79 28 Feb 00:55:22 00:59:08 31° 282° (WNW) 01:02:55 145.935-145.965
NANOSAT C BR1 28 Feb 01:11:15 01:14:27 21° 282° (WNW) 01:17:41 145.865
POLYITAN 1 28 Feb 01:14:39 01:17:28 17° 282° (WNW) 01:20:17 437.675
QB50P2 28 Feb 01:18:16 01:20:32 14° 282° (WNW) 01:22:50 145.880/145.840
DX 1 28 Feb 01:20:28 01:24:49 73° 77° (ENE) 01:29:06 434.975-435.025
JUGNU 28 Feb 01:25:04 01:29:05 19° 15° (NNE) 01:33:08 437.505
SPROUT 28 Feb 01:26:22 01:30:18 38° 258° (WSW) 01:34:14 437.525
UKube-1 28 Feb 01:27:23 01:31:38 58° 78° (ENE) 01:35:50 .
BUGSAT 1 28 Feb 01:27:44 01:31:52 53° 282° (WNW) 01:35:59 437.445
NO-84 28 Feb 01:34:36 01:36:56 14° 57° (ENE) 01:39:16 435.350 FM
VELOX 1 28 Feb 01:38:29 01:41:50 21° 258° (WSW) 01:45:10 145.980
Oscar 19 28 Feb 01:43:58 01:48:49 43° 103° (ESE) 01:53:40 437.125/150
50 SAT 28 Feb 01:50:14 01:52:22 15° 258° (WSW) 01:54:29 437.505
AO-85 28 Feb 01:51:20 01:52:56 11° 114° (ESE) 01:54:31 145.980
SRMSAT 28 Feb 02:30:05 02:32:03 12° 8° (N) 02:34:00 437.500
ITUPSAT 1 28 Feb 02:33:38 02:36:14 15° 77° (ENE) 02:38:49 437.325
PCSat 28 Feb 02:34:35 02:39:21 32° 71° (ENE) 02:44:07 145.827
BEESAT 28 Feb 02:37:55 02:41:01 17° 77° (ENE) 02:44:05 436.000
Gurwin Techsat 1B 28 Feb 02:49:43 02:54:58 65° 283° (WNW) 03:00:14 435.225
AO-7 28 Feb 03:09:17 03:15:35 24° 107° (ESE) 03:21:52 .
NO-84 28 Feb 03:10:28 03:14:30 34° 238° (WSW) 03:18:29 435.350 FM
JUGNU 28 Feb 03:12:49 03:18:27 45° 21° (NNE) 03:24:07 437.505
Oscar 19 28 Feb 03:26:35 03:27:51 11° 283° (WNW) 03:29:07 437.125/150
AO-85 28 Feb 03:28:31 03:33:18 41° 291° (WNW) 03:37:46 145.980
RS-15 28 Feb 03:53:33 04:04:53 52° 69° (ENE) 04:15:39 29.354- 29.394
ITAMSAT 1 28 Feb 04:02:24 04:07:36 77° 282° (WNW) 04:12:48 435.822/435.867
ITUPSAT 1 28 Feb 04:09:39 04:13:47 29° 258° (WSW) 04:17:54 437.325
MOZHAYETS 4 28 Feb 04:10:32 04:15:10 84° 81° (E) 04:19:49
BEESAT 28 Feb 04:14:40 04:18:30 24° 257° (WSW) 04:22:21 436.000
SRMSAT 28 Feb 04:17:32 04:22:03 22° 16° (NNE) 04:26:34 437.500
PCSat 28 Feb 04:19:08 04:22:28 17° 250° (WSW) 04:25:49 145.827
KKS-1 28 Feb 04:23:03 04:26:13 19° 78° (ENE) 04:29:22 437.445
BEESAT 3 28 Feb 04:38:39 04:42:18 45° 112° (ESE) 04:45:58 437.485
STARS 28 Feb 04:49:54 04:52:31 16° 78° (ENE) 04:55:07 437.465
ISS 28 Feb 04:59:45 05:02:59 57° 125° (SE) 05:06:11 437.550
AO-7 28 Feb 05:00:15 05:07:58 45° 286° (WNW) 05:15:44 .
JUGNU 28 Feb 05:01:36 05:07:31 67° 201° (SSW) 05:13:28 437.505
CUBESAT XI-V 28 Feb 05:17:20 05:22:00 63° 78° (ENE) 05:26:36 437.345
Tancredo 1 28 Feb 05:18:27 05:21:38 59° 305° (NW) 05:24:50 437.200
BEESAT 2 28 Feb 05:22:53 05:26:41 62° 112° (ESE) 05:30:32 435.950
M-CUBED/EXP-1 PRIME 28 Feb 05:55:52 05:59:22 61° 75° (ENE) 06:02:40 437.505
KKS-1 28 Feb 05:59:31 06:02:30 18° 257° (WSW) 06:05:29 437.445
SRMSAT 28 Feb 06:05:40 06:11:31 53° 21° (NNE) 06:17:22 437.500
RS-15 28 Feb 06:07:35 06:16:47 28° 249° (WSW) 06:25:44 29.354- 29.394
DOVE 4 28 Feb 06:10:05 06:14:34 30° 102° (ESE) 06:19:09 437.250
STARS 28 Feb 06:25:16 06:28:35 21° 258° (WSW) 06:31:54 437.465
KAITUO 1B 28 Feb 06:29:30 06:32:42 27° 101° (ESE) 06:35:53 145.475/437.950
XW-2F 28 Feb 06:38:35 06:42:14 51° 102° (ESE) 06:45:52 145.980 - 146.000
XW-2D 28 Feb 06:44:54 06:48:39 73° 102° (ESE) 06:52:24 145.860 - 145.880
XW-2B 28 Feb 06:50:01 06:53:47 85° 104° (ESE) 06:57:32 145.730 - 145.750
JUGNU 28 Feb 06:51:51 06:56:45 26° 197° (SSW) 07:01:40 437.505
STRAND 1 28 Feb 06:54:22 06:55:10 10° 77° (ENE) 06:55:57 437.568
XW-2C 28 Feb 06:58:49 07:02:32 66° 281° (WNW) 07:06:16 145.795 - 145.815
NUDT-PHONESAT 28 Feb 07:00:24 07:04:06 83° 281° (W) 07:07:48 437.300
CUTE-I 28 Feb 07:10:00 07:15:20 71° 282° (WNW) 07:20:40 437.470
LilacSat-2 28 Feb 07:19:11 07:22:28 28° 281° (WNW) 07:25:45 437.200
XW-2A 28 Feb 07:28:39 07:31:30 24° 101° (E) 07:34:21 145.665 - 145.685
DOVE 4 28 Feb 07:48:38 07:51:58 17° 281° (W) 07:55:21 437.250
SRMSAT 28 Feb 07:54:52 08:00:45 56° 201° (SSW) 08:06:37 437.500
CUBEBUG 2 28 Feb 08:00:28 08:03:35 18° 101° (E) 08:06:40 437.445
SEEDS 28 Feb 08:02:56 08:06:34 30° 101° (ESE) 08:10:15 437.485
SO-50 28 Feb 08:19:12 08:23:03 28° 68° (ENE) 08:26:56 436.795
HO-68 28 Feb 08:19:56 08:27:05 88° 107° (ESE) 08:34:17 435.675
STRAND 1 28 Feb 08:29:11 08:34:03 44° 257° (WSW) 08:38:55 437.568
UWE-3 28 Feb 08:31:02 08:34:45 26° 101° (E) 08:38:22 435.000/436.395/437.385
JUGNU 28 Feb 08:43:49 08:46:29 13° 190° (S) 08:49:09 437.505
ZACube-1 28 Feb 08:45:47 08:49:00 20° 101° (E) 08:52:10 437.345
CUTE 1.7 + AOD 2 28 Feb 08:46:45 08:50:27 31° 281° (W) 08:54:10 437.475
O/OREOS (USA 219) 28 Feb 08:59:07 09:00:41 12° 75° (ENE) 09:02:14 437.305
AAUSAT CUBESAT 2 28 Feb 09:18:30 09:22:25 45° 281° (WNW) 09:26:22 437.432
AO-73 28 Feb 09:31:18 09:35:40 85° 99° (E) 09:39:56 145.935
Oscar 11 28 Feb 09:34:06 09:38:22 78° 100° (E) 09:42:40 .
CUBEBUG 2 28 Feb 09:36:30 09:39:56 21° 282° (WNW) 09:43:19 437.445
SRMSAT 28 Feb 09:45:36 09:50:12 22° 196° (SSW) 09:54:47 437.500
PRISM 28 Feb 09:58:35 10:02:38 57° 78° (ENE) 10:06:38 437.425
SO-50 28 Feb 10:01:14 10:03:16 13° 247° (WSW) 10:05:19 436.795
UWE-3 28 Feb 10:08:39 10:10:53 14° 283° (WNW) 10:13:08 435.000/436.395/437.385
YUBILEINY 28 Feb 10:09:13 10:17:37 47° 93° (E) 10:25:55 435.215
FO-29 28 Feb 10:18:58 10:23:19 19° 74° (ENE) 10:27:56 435.910
ZACube-1 28 Feb 10:22:15 10:25:00 16° 282° (WNW) 10:27:45 437.345
DELFI C3 28 Feb 10:24:22 10:28:17 83° 281° (WNW) 10:32:15 145.870
O/OREOS (USA 219) 28 Feb 10:35:47 10:39:48 30° 256° (WSW) 10:43:51 437.305
TIGRISAT 28 Feb 11:03:16 11:07:34 59° 259° (WSW) 11:11:57 435.000
UNISAT 6 28 Feb 11:03:58 11:08:14 52° 258° (WSW) 11:12:34 437.425
AIST 2D 28 Feb 11:25:17 11:27:52 19° 79° (E) 11:30:27 435.315
EO-79 28 Feb 11:28:06 11:29:40 12° 78° (ENE) 11:31:15 145.935-145.965
SRMSAT 28 Feb 11:38:08 11:40:10 12° 188° (S) 11:42:13 437.500
NANOSAT C BR1 28 Feb 11:41:51 11:44:40 18° 78° (ENE) 11:47:28 145.865
POLYITAN 1 28 Feb 11:44:52 11:48:09 22° 78° (ENE) 11:51:25 437.675
LO-87 28 Feb 11:46:05 11:49:40 65° 281° (W) 11:53:18 145.935 - 145.965
QB50P2 28 Feb 11:47:41 11:51:16 27° 78° (ENE) 11:54:49 145.880/145.840
ESTCUBE 1 28 Feb 12:00:46 12:05:12 68° 102° (ESE) 12:09:40 437.505/2401.250
SPROUT 28 Feb 12:01:03 12:01:46 10° 102° (ESE) 12:02:28 437.525
FO-29 28 Feb 12:01:54 12:07:50 44° 259° (WSW) 12:14:29 435.910
YUBILEINY 28 Feb 12:07:43 12:13:59 22° 273° (W) 12:20:16 435.215
VELOX 1 28 Feb 12:13:31 12:17:02 23° 102° (ESE) 12:20:33 145.980
JUGNU 28 Feb 12:23:44 12:26:49 14° 169° (S) 12:29:54 437.505
DUCHIFAT 1 28 Feb 12:46:34 12:50:39 53° 258° (WSW) 12:54:43 145.980
EO-79 28 Feb 13:01:41 13:05:10 25° 258° (WSW) 13:08:39 145.935-145.965
NANOSAT C BR1 28 Feb 13:17:19 13:20:06 17° 258° (WSW) 13:22:54 145.865
POLYITAN 1 28 Feb 13:21:29 13:23:39 14° 258° (WSW) 13:25:51 437.675
QB50P2 28 Feb 13:25:27 13:26:46 11° 258° (WSW) 13:28:06 145.880/145.840
DX 1 28 Feb 13:29:54 13:34:15 82° 282° (WNW) 13:38:39 434.975-435.025
BUGSAT 1 28 Feb 13:30:58 13:34:49 46° 258° (WSW) 13:38:41 437.445
SPROUT 28 Feb 13:33:37 13:37:23 30° 282° (WNW) 13:41:11 437.525
50 SAT 28 Feb 13:34:59 13:37:54 26° 281° (WNW) 13:40:51 437.505
UKube-1 28 Feb 13:35:37 13:39:55 77° 102° (ESE) 13:44:15 .
Gurwin Techsat 1B 28 Feb 13:49:40 13:53:49 23° 77° (ENE) 13:57:58 435.225
VELOX 1 28 Feb 13:50:39 13:53:13 15° 282° (WNW) 13:55:49 145.980
AO-85 28 Feb 14:02:20 14:04:50 16° 70° (ENE) 14:07:25 145.980
JUGNU 28 Feb 14:11:18 14:16:27 30° 162° (SSE) 14:21:33 437.505
Oscar 19 28 Feb 14:17:26 14:22:37 73° 258° (WSW) 14:27:44 437.125/150
ITUPSAT 1 28 Feb 14:54:23 14:58:25 28° 102° (ESE) 15:02:27 437.325
NO-84 28 Feb 14:56:46 14:59:11 25° 302° (WNW) 15:01:38 435.350 FM
BEESAT 28 Feb 14:58:34 15:02:47 32° 102° (ESE) 15:07:01 436.000
ITAMSAT 1 28 Feb 15:00:01 15:03:24 18° 77° (ENE) 15:06:46 435.822/435.867
PCSat 28 Feb 15:10:06 15:15:30 81° 289° (WNW) 15:20:54 145.827
SRMSAT 28 Feb 15:17:17 15:20:45 16° 167° (SSE) 15:24:13 437.500
Gurwin Techsat 1B 28 Feb 15:29:26 15:33:29 22° 257° (WSW) 15:37:32 435.225
AO-7 28 Feb 15:34:18 15:41:59 41° 74° (ENE) 15:49:38 .
RS-15 28 Feb 15:35:13 15:45:39 43° 110° (ESE) 15:56:31 29.354- 29.394
AO-85 28 Feb 15:41:48 15:44:57 21° 246° (WSW) 15:48:17 145.980
JUGNU 28 Feb 15:59:40 16:05:36 79° 159° (SSE) 16:11:30 437.505
MOZHAYETS 4 28 Feb 16:27:21 16:31:48 56° 282° (WNW) 16:36:16
BEESAT 3 28 Feb 16:30:25 16:34:13 46° 68° (ENE) 16:38:00 437.485
ITUPSAT 1 28 Feb 16:33:20 16:35:58 15° 283° (WNW) 16:38:37 437.325
ISS 28 Feb 16:33:46 16:36:43 32° 55° (NE) 16:39:39 437.550
KKS-1 28 Feb 16:34:41 16:38:33 29° 102° (ESE) 16:42:25 437.445
ITAMSAT 1 28 Feb 16:38:10 16:42:34 28° 257° (WSW) 16:46:59 435.822/435.867
BEESAT 28 Feb 16:38:19 16:40:17 12° 283° (WNW) 16:42:16 436.000
Tancredo 1 28 Feb 16:50:47 16:53:57 70° 56° (NE) 16:57:06 437.200
STARS 28 Feb 16:59:47 17:03:13 22° 102° (ESE) 17:06:41 437.465
SRMSAT 28 Feb 17:05:05 17:10:25 35° 161° (SSE) 17:15:46 437.500
BEESAT 2 28 Feb 17:15:55 17:19:52 66° 68° (ENE) 17:23:49 435.950
AO-7 28 Feb 17:27:40 17:34:22 27° 253° (WSW) 17:41:05 .
CUBESAT XI-V 28 Feb 17:35:30 17:40:03 73° 282° (WNW) 17:44:41 437.345
RS-15 28 Feb 17:47:42 17:57:38 35° 292° (WNW) 18:08:05 29.354- 29.394
JUGNU 28 Feb 17:49:15 17:54:40 37° 340° (NNW) 18:00:03 437.505
M-CUBED/EXP-1 PRIME 28 Feb 17:53:27 17:57:46 62° 106° (ESE) 18:02:19 437.505
CUTE-I 28 Feb 18:10:51 18:14:52 22° 77° (ENE) 18:18:53 437.470
KKS-1 28 Feb 18:13:00 18:14:50 12° 282° (WNW) 18:16:40 437.445
KAITUO 1B 28 Feb 18:22:09 18:25:06 22° 79° (ENE) 18:28:03 145.475/437.950
DOVE 4 28 Feb 18:31:23 18:35:29 47° 79° (E) 18:39:28 437.250
XW-2F 28 Feb 18:31:59 18:35:35 40° 79° (E) 18:39:11 145.980 - 146.000
STARS 28 Feb 18:36:39 18:39:18 16° 282° (WNW) 18:41:58 437.465
XW-2D 28 Feb 18:38:36 18:42:21 57° 79° (E) 18:46:07 145.860 - 145.880
XW-2B 28 Feb 18:43:41 18:47:29 67° 79° (E) 18:51:18 145.730 - 145.750
NUDT-PHONESAT 28 Feb 18:52:04 18:55:47 70° 79° (E) 18:59:31 437.300
XW-2C 28 Feb 18:52:26 18:56:17 85° 259° (W) 19:00:06 145.795 - 145.815
SRMSAT 28 Feb 18:53:44 18:59:41 86° 338° (NNW) 19:05:38 437.500
XW-2A 28 Feb 19:12:48 19:14:20 13° 79° (ENE) 19:15:51 145.665 - 145.685
LilacSat-2 28 Feb 19:13:16 19:16:49 36° 259° (W) 19:20:23 437.200
CUTE 1.7 + AOD 2 28 Feb 19:19:30 19:21:14 12° 78° (ENE) 19:22:58 437.475
STRAND 1 28 Feb 19:23:26 19:27:43 27° 103° (ESE) 19:31:59 437.568
JUGNU 28 Feb 19:40:32 19:44:06 16° 346° (NNW) 19:47:39 437.505
CUTE-I 28 Feb 19:50:27 19:54:38 24° 257° (WSW) 19:58:50 437.470
KAITUO 1B 28 Feb 19:57:57 19:58:51 11° 258° (WSW) 19:59:45 145.475/437.950
SEEDS 28 Feb 20:07:54 20:11:50 37° 79° (E) 20:15:45 437.485
HO-68 28 Feb 20:11:34 20:18:46 75° 75° (ENE) 20:25:55 435.675
CUBEBUG 2 28 Feb 20:12:02 20:15:33 25° 78° (ENE) 20:19:08 437.445
SO-50 28 Feb 20:31:11 20:35:51 56° 112° (ESE) 20:40:28 436.795
UWE-3 28 Feb 20:41:32 20:45:29 35° 78° (ENE) 20:49:31 435.000/436.395/437.385
SRMSAT 28 Feb 20:43:44 20:48:58 32° 341° (NNW) 20:54:12 437.500
XW-2A 28 Feb 20:45:07 20:46:50 13° 259° (WSW) 20:48:34 145.665 - 145.685
CUTE 1.7 + AOD 2 28 Feb 20:53:12 20:56:47 26° 258° (WSW) 21:00:21 437.475
ZACube-1 28 Feb 20:54:47 20:58:29 27° 78° (ENE) 21:02:15 437.345
